Latest METARs, TAFs and NOTAMs for LIML


---------------------------------------------------------------------------
	(OBSERVATIONS)
LIML 292050Z 10003KT CAVOK 13/03 Q1016 NOSIG=
LIML 292020Z 08001KT CAVOK 12/02 Q1016 NOSIG=
LIML 291950Z 00000KT CAVOK 13/01 Q1016 NOSIG=
LIML 291920Z VRB02KT CAVOK 15/00 Q1015 NOSIG=
LIML 291850Z 12003KT CAVOK 15/M01 Q1015 NOSIG=
---------------------------------------------------------------------------
	(FC)
Sorry, FC For LIML Not Found
---------------------------------------------------------------------------
	(TERMINAL AREA FORECAST)
LIML 291700Z 2918/3018 VRB05KT CAVOK=
---------------------------------------------------------------------------
	(NOTAMS)


LIML A1085/17 A-CDM (AIRPORT COLLABORATIVE DECISION MAKING) LIML
    (MILANO/LINATE AD) - FULL A-CDM OPERATIONS. ACCORDING TO
    THE ITALIAN CIVIL AVIATION AUTHORITY PROVISION 05/2015 AND
    AIC 19/2012 START UP PROCEDURE FOR BOTH COMMERCIAL AND GENERAL
    AVIATION CHG AS FOLLOWS: -TOBT (TARGET OFF-BLOCK TIME) MUST
    BE PROVIDED BY AIRCRAFT OPERATOR/HANDLING AGENT -IF TOBT
    (TARGET OFF-BLOCK TIME) CAN NO LONGER BE MET, AT ANY TIME,
    THEN TOBT MUST BE UPDATED BY AIRCRAFT OPERATOR/HANDLING AGENT
    -IF AT TOBT PLUS 5 MINUTES THE AIRCRAFT IS NOT READY, THEN
    TOBT MUST BE UPDATED BY AIRCRAFT OPERATOR/HANDLING AGENT,
    -WHEN HANDLING OPERATIONS ARE COMPLETED, DOORS CLOSED, LOADING
    BRIDGE, IF ANY, RETRACTED, READY TO PUSH-BACK OR TAXI, BEFORE
    REQUESTING ATC START UP CLEARENCE TO LINATE TWR ON 'GROUND
    FREQ' 121.800MHZ, PILOT MUST HAVE RECEIVED 'READY ISSUED
    FROM APRON MANAGEMENT SERVICE UNIT' FROM RAMP AGENT ACCORDING
    TO APRON MANAGEMENT SERVICE PROCEDURES INCLUDED IN CIVIL
    AVIATION AUTHORITY PROVISION 05/2015 END PART 1 OF 2. 20
    FEB 15:46 2017 UNTIL 20 MAY 23:59 2017 ESTIMATED. CREATED:
    20 FEB 15:48 2017

LIML A1085/17 -WHEN RECEIVED FROM APRON MANAGEMENT SERVICE UNIT
    RAMP AGENTS SHALL INFORM PILOTS ABOUT READY ISSUED AND COMMUNICATE
    LAST TSAT (TARGET START UP APPROVAL TIME) -PILOTS MUST TAKE
    NOTE OF LAST TSAT RECEIVED AND COMPLY WITH IT -LINATE 'GROUND
    FREQ' ON PILOT REQUEST WILL APPROVE START UP ACCORDING TO
    TSAT AND PREVAILING TRAFFIC SITUATION -PUSH BACK AND TAXIING
    MUST BE STARTED AFTER START UP CLEARANCE (ASAT) WITHIN 3
    AND 5MIN RESPECTIVELY -A PERMANENT AND FULLY AUTOMATIC DATA
    EXCHANGE WITH THE NMOC(NETWORK MANAGER OPERATIONS CENTRE)
    WILL BE ESTABLISHED VIA DPI (DEPARTURE PLANNING INFORMATION)
    MESSAGES. THIS DATA TRANSFER WILL ENABLE HIGHLY ACCURATE
    EARLY PREDICTIONS DEPARTURE TIMES. THIS WILL ALLOW FOR MORE
    ACCURATE AND EFFICIENT CALCULATION OF THE CTOT DUE TO THE
    USE OF LOCAL TARGET TAKE-OFF TIMES.THE BASIC NMOC PROCEDURES
    CONTINUE TO APPLY. THE NMOC WILL GENERALLY TAKE THESE LOCAL
    TARGET TAKE-OFF TIMES INTO CONSIDERATION AND WILL TRY TO
    ADJUST THEM ACCORDINGLY. REF AIP AD 2 LIML 1-9/10 END PART
    2 OF 2. 20 FEB 15:46 2017 UNTIL 20 MAY 23:59 2017 ESTIMATED.
    CREATED: 20 FEB 15:48 2017

LIML A1374/17 REF AIP AD 2 LIML 1-7 ITEM 19 'RADIO NAVIGATION
    AND LANDING AIDS' REFERRING VOR/DME 'MMP' FREQ 113.35MHZ
    CH 80Y COLUMN 8 'REMARKS' ADD AS FLW: MAINT VOR: SECOND MONDAY
    EACH MONTH 2000-2200 (1900-2100. 07 MAR 10:36 2017 UNTIL
    PERM. CREATED: 07 MAR 10:36 2017

LIML A1506/16 REF AOC TYPE B NR ML 4/0 NEW OBSTACLE ERECTED CRANE
    PENETRATING INNER HORIZONTAL SURFACE PSN COORD (WGS-84):
    452707.3N 0091500.4E MAX ELEV AGL 52.0M/170.6FT MAX ELEV
    AMSL 160.0M/524.9FT ROTATING JIB 45M DAY ICAO SGL PROVIDED.
    15 MAR 00:00 2016 UNTIL PERM. CREATED: 14 MAR 16:07 2016

LIML A1542/17 TORINO VOR/DME 'TOP' FREQ 114.50MHZ CH 92X AVBL
    AS FLW: - VOR ON TEST, DO NOT USE - DME OPR, TEMPORARILY
    DISPLACED NEW POSITION: COORDINATES 445530.8N0075140.4E,
    ELEV 257M AMSL REF AIP AD 2 LIML 1-8. 15 MAR 13:57 2017 UNTIL
    12 MAY 23:59 2017 ESTIMATED. CREATED: 15 MAR 13:57 2017

LIML A1597/17 RUNWAY 17/35 CLOSED AND USED AS PARKING AREA. RMK:
    HEL/FATO NOT AFFECTED. REF AIP AD 2 LIML 2-1. 16 MAR 15:25
    2017 UNTIL 25 MAY 10:00 2017. CREATED: 16 MAR 15:25 2017

LIML A1764/17 LANDING AND TKOF NOT ALLOWED TO VFR FIXED WING
    ACFT. TFC NOT AFFECTED: MIL, STATE, HUMANITARIAN AND HOSPITAL
    FLIGHT. REF AIP AD 2 LIML 1-14. DAILY 0401-0800, 1001-1300
    AND 1501-2100, 26 MAR 04:01 2017 UNTIL 25 MAY 21:00 2017.
    CREATED: 22 MAR 23:08 2017

LIML A1995/17 OBSTACLE ERECTED MOBILE CRANE OPERATING IN POSITION
    (WGS-84) 452746.757N 0091650.113E ELEV AGL 25.00M/82.00FT
    ELEV AMSL 136.00M/446.00FT ICAO SGL PROVIDED REF AOC TYBE
    B NR ML 4/0. 31 MAR 22:01 2017 UNTIL 29 JUN 22:00 2017 ESTIMATED.
    CREATED: 31 MAR 15:20 2017

LIML A2052/17 GENOVA VOR/DME 'GEN' FREQ 112.80MHZ CH75X AVBL
    AS FLW: -VOR ON TEST -DME OPERATIVE REF AIP AD 2 LIML 1-7.
    04 APR 08:17 2017 UNTIL 01 JUL 23:59 2017 ESTIMATED. CREATED:
    04 APR 08:17 2017

LIML A2131/17 GENOVA NDB 'GEN' FREQ 318.00KHZ UNSERVICEABLE REF
    AIP AD 2 LIML 1-7. 06 APR 11:35 2017 UNTIL 02 JUL 23:59 2017
    ESTIMATED. CREATED: 06 APR 11:35 2017

LIML A2318/17 TRIGGER NOTAM-PERM AIP AIRAC AMDT 4/17 EFFECTIVE
    DATE 25 MAY 2017 AD MILANO/LINATE - AERODROME CHART, HOT
    SPOT MAP, LOW VISIBILITY PROCEDURES CHART, AIRCRAFT PARKING
    DOCKING CHART - WEST APRON UPDATED - REVIEW OF 'INITIAL CLIMB
    PROCEDURES AND SID RWY 36' AND 'TRANSITION SEGMENTS TO ENROUTE
    RWY 36' AIRAC IS POSTED AND AVBL ON WEBSITE WWW.ENAV.IT.
    25 MAY 00:00 2017 UNTIL 07 JUN 23:59 2017. CREATED: 13 APR
    14:37 2017

LIML A2417/17 REF AOC TYPE B NR ML 4/0 NEW OBSTACLE ERECTED TWO
    CRANES PENETRATING INNER HORIZONTAL SURFACE - PSN COORD WGS-84:
    452845.8N 0091443.3E MAX ELEV AGL 49.5M/162.4FT MAX ELEV
    AMSL 165.0M/541.3FT ROTATING JIB 50M DAY ICAO SGL PROVIDED
    - PSN COORD WGS-84: 452844.3N 0091442.4E MAX ELEV AGL 42.5M/139.4FT
    MAX ELEV AMSL 158.0M/518.4FT ROTATING JIB 40M DAY ICAO SGL
    PROVIDED. 20 APR 00:00 2017 UNTIL PERM. CREATED: 19 APR 06:57
    2017

LIML A3860/16 REF AIP AD 2 LIML 3-1 (AOC ICAO TYPE A NR ML A1
    4/0) OBSTACLE CRANE PSN 3951.2M AFTER THR36 AND 338.9M RIGHT
    RCL ON TAKE- OFF DIRECTION, COORD (WGS-84) 452812.0N 0091643.4E
    AMSL 134.5M/441.3FT COMPLETELY WITHDRAWN. 09 JUN 07:26 2016
    UNTIL PERM. CREATED: 09 JUN 07:26 2016

LIML A7302/16 REF AOC TYPE B NR ML 4/0 NEW OBSTACLE POLE ERECTED
    PENETRATING CONICAL SURFACE PSN COORD (WGS-84): 452858.8N
    0091428.4E MAX ELEV AGL 37.6M/123.3FT MAX ELEV AMSL 155.8M/511.1FT
    ICAO SIGNAL UNPROVIDED. 17 OCT 13:54 2016 UNTIL PERM. CREATED:
    17 OCT 13:53 2016

LIML M1020/17 REF FLIP (CENTRAL AND NORTHERN ITALY) AD LIML 1-5
    'ILS-Z RWY 36' MILANO/LINATE CHG MISSED APPROACH AS FLW:
    PROCEED ON TR 355DEG CLIMBING TO 3000FT. AT 2.5NM DME (4NM
    ILNT DME) AFTER LIN VOR AT 1000FT OR ABOVE TURN RIGHT (IAS
    MAX 220KT) UNTIL JOINING RDL 105 LIN VOR BOUND TO MISSED
    APPROACH HOLDING PATTERN. HOLD BETWEEN 11 NM AND 14 NM LIN
    DME, INBOUND TR 285DEG, RIGHT TURN, IAS MAX 210KT. OTHER
    INFORMATION UNCHANGED. 08 MAR 08:52 2017 UNTIL PERM. CREATED:
    08 MAR 08:52 2017

---------------------------------------------------------------------------